EN

Hourly Weather Abertura

Today, 26 November, Thursday

Time Temperature Precipitation Wind Pressure Humidity
00:00 +8°C° 0 mm 4 mps 723 mmHg 91%
01:00 +9°C° 0.5 mm 3 mps 723 mmHg 92%
02:00 +10°C° 0.5 mm 3 mps 723 mmHg 93%
03:00 +10°C° 0.5 mm 3 mps 722 mmHg 93%
04:00 +10°C° 1.8 mm 3 mps 722 mmHg 93%
05:00 +10°C° 1.8 mm 3 mps 722 mmHg 93%
06:00 +10°C° 0 mm 3 mps 722 mmHg 91%
07:00 +10°C° 0.2 mm 3 mps 722 mmHg 90%
08:00 +10°C° 0.2 mm 4 mps 722 mmHg 88%
09:00 +11°C° 0.2 mm 4 mps 723 mmHg 86%
10:00 +11°C° 1.1 mm 4 mps 723 mmHg 86%
11:00 +10°C° 1.1 mm 3 mps 722 mmHg 86%
12:00 +10°C° 1.1 mm 3 mps 722 mmHg 86%
13:00 +10°C° 0.5 mm 3 mps 722 mmHg 87%
14:00 +10°C° 0.5 mm 2 mps 722 mmHg 88%
15:00 +10°C° 0.5 mm 2 mps 722 mmHg 89%
16:00 +9°C° 0.1 mm 2 mps 722 mmHg 90%
17:00 +10°C° 0.1 mm 1 mps 722 mmHg 91%
18:00 +10°C° 0.1 mm 1 mps 722 mmHg 92%
19:00 +10°C° 0 mm 1 mps 723 mmHg 91%
20:00 +9°C° 0 mm 2 mps 723 mmHg 91%
21:00 +9°C° 0 mm 2 mps 723 mmHg 91%
22:00 +9°C° 0 mm 2 mps 723 mmHg 90%
23:00 +9°C° 0 mm 2 mps 724 mmHg 90%

Tomorrow, 27 November, Friday

Time Temperature Precipitation Wind Pressure Humidity
00:00 +8°C° 0 mm 2 mps 724 mmHg 90%
01:00 +9°C° 0.2 mm 1 mps 723 mmHg 90%
02:00 +10°C° 0.2 mm 1 mps 723 mmHg 90%
03:00 +10°C° 0.2 mm 1 mps 722 mmHg 91%
04:00 +9°C° 0.9 mm 2 mps 722 mmHg 91%
05:00 +9°C° 0.9 mm 2 mps 722 mmHg 92%
06:00 +9°C° 0.9 mm 3 mps 722 mmHg 92%
07:00 +10°C° 0.1 mm 3 mps 722 mmHg 89%
08:00 +11°C° 0.1 mm 4 mps 722 mmHg 85%
09:00 +10°C° 0.1 mm 5 mps 722 mmHg 82%
10:00 +12°C° 0 mm 5 mps 722 mmHg 80%
11:00 +12°C° 0 mm 5 mps 722 mmHg 77%
12:00 +13°C° 0 mm 6 mps 722 mmHg 75%
13:00 +13°C° 0.1 mm 6 mps 721 mmHg 74%
14:00 +14°C° 0.1 mm 5 mps 721 mmHg 73%
15:00 +14°C° 0.1 mm 5 mps 721 mmHg 72%
16:00 +13°C° 0.1 mm 4 mps 721 mmHg 76%
17:00 +12°C° 0.1 mm 3 mps 721 mmHg 80%
18:00 +11°C° 0.1 mm 3 mps 721 mmHg 84%
19:00 +10°C° 0 mm 3 mps 721 mmHg 85%
20:00 +10°C° 0 mm 3 mps 722 mmHg 86%
21:00 +10°C° 0 mm 3 mps 722 mmHg 87%
22:00 +9°C° 0 mm 2 mps 722 mmHg 87%
23:00 +9°C° 0 mm 2 mps 722 mmHg 88%

Day after tomorrow, 28 November, Saturday

Time Temperature Precipitation Wind Pressure Humidity
00:00 +10°C° 0 mm 1 mps 722 mmHg 89%
01:00 +9°C° 0 mm 1 mps 722 mmHg 89%
02:00 +9°C° 0 mm 1 mps 722 mmHg 89%
03:00 +9°C° 0 mm 1 mps 722 mmHg 89%
04:00 +9°C° 0 mm 1 mps 722 mmHg 88%
05:00 +8°C° 0 mm 0 mps 722 mmHg 87%
06:00 +8°C° 0 mm 0 mps 722 mmHg 86%
07:00 +9°C° 0 mm 0 mps 722 mmHg 85%
08:00 +9°C° 0 mm 0 mps 722 mmHg 83%
09:00 +10°C° 0 mm 0 mps 723 mmHg 81%
10:00 +12°C° 0 mm 1 mps 723 mmHg 77%
11:00 +13°C° 0 mm 1 mps 723 mmHg 72%
12:00 +15°C° 0 mm 2 mps 723 mmHg 67%
13:00 +15°C° 0 mm 2 mps 722 mmHg 67%
14:00 +15°C° 0 mm 2 mps 722 mmHg 67%
15:00 +15°C° 0 mm 2 mps 722 mmHg 67%
16:00 +14°C° 0 mm 2 mps 722 mmHg 73%
17:00 +13°C° 0 mm 2 mps 722 mmHg 78%
18:00 +10°C° 0 mm 2 mps 722 mmHg 84%
19:00 +10°C° 0 mm 2 mps 722 mmHg 85%
20:00 +10°C° 0 mm 2 mps 723 mmHg 87%
21:00 +10°C° 0 mm 3 mps 723 mmHg 88%
22:00 +10°C° 0.1 mm 3 mps 723 mmHg 88%
23:00 +10°C° 0.1 mm 3 mps 723 mmHg 89%

29 November, Sunday

Time Temperature Precipitation Wind Pressure Humidity
00:00 +9°C° 0.1 mm 3 mps 723 mmHg 89%
01:00 +10°C° 0.6 mm 3 mps 723 mmHg 90%
02:00 +10°C° 0.6 mm 3 mps 723 mmHg 91%
03:00 +10°C° 0.6 mm 3 mps 723 mmHg 92%
04:00 +10°C° 0.1 mm 3 mps 724 mmHg 92%
05:00 +10°C° 0.1 mm 3 mps 724 mmHg 91%
06:00 +9°C° 0.1 mm 3 mps 724 mmHg 91%
07:00 +10°C° 0.1 mm 3 mps 724 mmHg 90%
08:00 +10°C° 0.1 mm 3 mps 725 mmHg 89%
09:00 +10°C° 0.1 mm 4 mps 725 mmHg 87%
10:00 +11°C° 0.1 mm 3 mps 726 mmHg 83%
11:00 +13°C° 0.1 mm 3 mps 726 mmHg 79%
12:00 +14°C° 0.1 mm 3 mps 726 mmHg 75%
13:00 +14°C° 0.5 mm 3 mps 726 mmHg 76%
14:00 +13°C° 0.5 mm 3 mps 725 mmHg 77%
15:00 +13°C° 0.5 mm 3 mps 725 mmHg 78%
16:00 +13°C° 0.8 mm 3 mps 726 mmHg 82%
17:00 +12°C° 0.8 mm 3 mps 726 mmHg 86%
18:00 +11°C° 0.8 mm 3 mps 726 mmHg 89%
19:00 +11°C° 0.3 mm 3 mps 726 mmHg 89%
20:00 +10°C° 0.3 mm 2 mps 727 mmHg 89%
21:00 +10°C° 0.3 mm 2 mps 727 mmHg 89%
22:00 +10°C° 0.1 mm 2 mps 727 mmHg 89%
23:00 +10°C° 0.1 mm 2 mps 727 mmHg 89%

30 November, Monday

Time Temperature Precipitation Wind Pressure Humidity
00:00 +10°C° 0.1 mm 2 mps 727 mmHg 89%
01:00 +10°C° 0.2 mm 2 mps 727 mmHg 89%
02:00 +10°C° 0.2 mm 2 mps 727 mmHg 90%
03:00 +10°C° 0.2 mm 3 mps 727 mmHg 90%
04:00 +10°C° 0.3 mm 3 mps 727 mmHg 89%
05:00 +10°C° 0.3 mm 3 mps 727 mmHg 89%
06:00 +9°C° 0.3 mm 3 mps 727 mmHg 88%
07:00 +10°C° 0 mm 3 mps 728 mmHg 86%
08:00 +10°C° 0 mm 3 mps 728 mmHg 85%
09:00 +11°C° 0 mm 3 mps 728 mmHg 83%
10:00 +13°C° 0 mm 3 mps 728 mmHg 77%
11:00 +14°C° 0 mm 3 mps 728 mmHg 71%
12:00 +17°C° 0 mm 3 mps 728 mmHg 66%
13:00 +17°C° 0 mm 3 mps 727 mmHg 65%
14:00 +17°C° 0 mm 3 mps 727 mmHg 64%
15:00 +18°C° 0 mm 3 mps 727 mmHg 63%
16:00 +16°C° 0 mm 3 mps 727 mmHg 69%
17:00 +13°C° 0 mm 3 mps 727 mmHg 75%
18:00 +12°C° 0 mm 3 mps 727 mmHg 81%
19:00 +12°C° 0 mm 2 mps 727 mmHg 82%
20:00 +12°C° 0 mm 2 mps 728 mmHg 82%
21:00 +12°C° 0 mm 2 mps 728 mmHg 82%
22:00 +10°C° 0 mm 2 mps 728 mmHg 82%
23:00 +10°C° 0 mm 2 mps 728 mmHg 83%

1 December, Tuesday

Time Temperature Precipitation Wind Pressure Humidity
00:00 +10°C° 0 mm 2 mps 728 mmHg 83%
01:00 +10°C° 0 mm 2 mps 728 mmHg 84%
02:00 +9°C° 0 mm 2 mps 728 mmHg 84%
03:00 +9°C° 0 mm 2 mps 728 mmHg 85%
04:00 +9°C° 0 mm 2 mps 728 mmHg 85%
05:00 +9°C° 0 mm 2 mps 728 mmHg 86%
06:00 +9°C° 0 mm 1 mps 728 mmHg 86%
07:00 +9°C° 0 mm 2 mps 729 mmHg 83%
08:00 +10°C° 0 mm 2 mps 729 mmHg 81%
09:00 +12°C° 0 mm 2 mps 729 mmHg 78%
10:00 +13°C° 0 mm 2 mps 729 mmHg 73%
11:00 +15°C° 0 mm 2 mps 729 mmHg 69%
12:00 +16°C° 0 mm 3 mps 729 mmHg 64%
13:00 +16°C° 0 mm 3 mps 729 mmHg 63%
14:00 +17°C° 0 mm 2 mps 728 mmHg 63%
15:00 +17°C° 0 mm 2 mps 728 mmHg 62%
16:00 +15°C° 0 mm 2 mps 728 mmHg 68%
17:00 +14°C° 0 mm 2 mps 728 mmHg 75%
18:00 +12°C° 0 mm 1 mps 728 mmHg 81%
19:00 +12°C° 0 mm 1 mps 728 mmHg 82%
20:00 +11°C° 0 mm 1 mps 729 mmHg 83%
21:00 +11°C° 0 mm 1 mps 729 mmHg 85%
22:00 +11°C° 0 mm 1 mps 729 mmHg 85%
23:00 +10°C° 0 mm 1 mps 729 mmHg 85%
Show more